www.pogodaiklimat.ru

Погода и климат >> Архив погоды >> Россия >> Мордовия >> Краснослободск


ПОГОДА в Краснослободске

  • Прогноз погоды в Краснослободске
  • Монитор погоды в Краснослободске
  • Климат города

АРХИВ ПОГОДЫ в Краснослободске

Время (UTC), дата Ветер
(напр.,м/с)
 
Видим.   Явления Облачность Т
(С)
Тd
(С)
f
(%)
Тe
(С)
Тes
(С)
Комфортность P
(гПа)
Po
(гПа)
Тmin
(С)
Tmax
(С)
R
(мм)
R24
(мм)
S
(см)
03 14.10 З 2-2
{2}
10 км 10/10 1000 м
[Sc]
+8.4 +7.1 92 +6 +6 1024.0 1001.1 +8.3
06 14.10 С 2-2
{2}
4000 м слабая морось 10/10 300 м
[St]
+8.6 +7.8 95 +7 +7 1024.9 1002.0
09 14.10 СЗ 2-2
{2}
10 км {морось} 10/10 1000 м
[Sc]
+9.5 +6.5 82 +8 +8 1024.6 1001.8
12 14.10 СЗ 2-2
{2}
20 км {морось} 10/10 1000 м
[Sc]
+9.3 +6.5 83 +8 +8 1024.7 1001.8
15 14.10 СЗ 2-2
{2}
10 км 10/10 1000 м
[Sc]
+8.9 +6.5 85 +7 +7 1024.4 1001.5 +9.8 0.0
18 14.10 штиль 0 10 км слабый дождь 10/10 300 м
[Frnb Ns]
+8.4 +7.3 93 +7 +7 1023.6 1000.7
21 14.10 З 2-2
{2}
10 км слабая морось 10/10 300 м
[St]
+8.9 +8.1 95 +7 +7 1023.0 1000.1
00 15.10 СЗ 2-4
{4}
10 км {морось} 10/10 300 м
[St]
+9.9 +8.9 93 +8 +8 1022.4 999.6
03 15.10 СЗ 4-6
{6}
10 км 10/10 1000 м
[Sc]
+10.3 +9.0 92 +8 +8 1022.6 1000.0 +8.3 0.0
06 15.10 СЗ 4-6
{6}
10 км 10/10 300 м
[St]
+10.5 +8.9 90 +8 +8 1023.3 1000.5
09 15.10 СЗ 4-6
{6}
20 км 8/8 600 м
[Cu med, cong]
+14.5 +10.9 79 +13 +14 1023.3 1000.9
12 15.10 З 4-4
{4}
20 км ясно +19.7 +9.5 52 +21 +22 комфорт 1023.0 1000.9
15 15.10 З 2-4
{4}
10 км ясно +15.1 +8.1 63 +15 +15 1023.7 1001.3 +20.5
18 15.10 З 2-2
{2}
10 км ясно +11.5 +7.8 78 +10 +10 1024.7 1002.0
21 15.10 СЗ 2-2
{2}
10 км ясно +9.8 +6.5 80 +8 +8 1024.9 1002.1
00 16.10 С 2-2
{2}
10 км ясно +7.3 +5.5 88 +5 +5 1025.4 1002.3
03 16.10 штиль 0 10 км ясно +6.6 +5.2 91 +6 +6 1025.7 1002.5 +6.5
06 16.10 З 2-2
{2}
20 км ясно +9.5 +7.6 88 +8 +9 1025.9 1002.9
09 16.10 С 2-2
{2}
20 км 10/0
[Ci fib]
+15.6 +7.8 60 +16 +19 1025.2 1002.7
12 16.10 С 2-4
{4}
20 км 4/0
[Ci fib]
+17.6 +4.0 40 +18 +19 1024.2 1002.0
15 16.10 Ю 2-4
{4}
10 км 3/0
[Ci fib]
+14.0 +4.0 51 +14 +14 1023.9 1001.4 +17.9
18 16.10 Ю 2-4
{4}
10 км ясно +11.6 +3.8 59 +11 +11 1023.5 1000.8
21 16.10 Ю 2-2
{2}
10 км ясно +9.9 +3.8 66 +9 +9 1022.8 1000.0
00 17.10 З 2-4
{4}
10 км ясно +7.2 +3.4 77 +5 +5 1022.5 999.4
03 17.10 З 2-4
{4}
10 км ясно +6.6 +3.0 78 +4 +4 1022.4 999.2 +6.5
06 17.10 З 4-4
{4}
20 км ясно +8.8 +4.3 73 +6 +7 1022.6 999.7 +5.8
09 17.10 СЗ 4-8
{8}
20 км ясно +14.3 +5.5 55 +13 +16 1022.9 1000.4
12 17.10 СЗ 4-4
{4}
20 км ясно +15.0 +6.4 56 +14 +15 1023.0 1000.6
15 17.10 СЗ 4-4
{4}
10 км 3/0
[Ci fib]
+10.5 +6.4 76 +8 +8 1024.9 1002.1 +15.3
18 17.10 З 2-2
{2}
10 км ясно +6.8 +4.7 86 +5 +5 1026.0 1002.8
21 17.10 С 2-2
{2}
10 км ясно +5.8 +4.9 94 +3 +3 1026.8 1003.6
00 18.10 штиль 0 500 м туман ?/? +3.2 +2.4 94 +2 +2 1027.1 1003.6
03 18.10 Ю 2-2
{2}
500 м туман ?/? +0.4 -0.2 96 -3 -3 1027.4 1003.6 +0.3
06 18.10 штиль 0 500 м туман ?/? +2.3 +2.1 99 +1 +1 1027.4 1003.8 0.0
09 18.10 штиль 0 4000 м в посл. час туман ясно +9.5 +7.8 89 +9 +14 1025.9 1002.9
12 18.10 Ю 2-4
{4}
20 км {туман} ясно +15.3 +7.3 59 +15 +17 1023.6 1001.2
15 18.10 Ю 2-2
{2}
10 км ясно +12.1 +7.1 71 +11 +11 1022.9 1000.2 +15.6
18 18.10 ЮЗ 2-4
{4}
10 км ясно +9.6 +6.1 79 +8 +8 1021.8 999.0
21 18.10 ЮЗ 2-4
{4}
10 км ясно +8.4 +5.5 82 +7 +7 1021.4 998.4
00 19.10 ЮЗ 2-4
{4}
10 км ясно +7.2 +5.1 86 +5 +5 1020.7 997.6
03 19.10 ЮЗ 2-4
{4}
4000 м дымка ясно +5.3 +4.1 92 +3 +3 1019.9 996.8 +5.2
06 19.10 Ю 2-4
{4}
4000 м дымка ясно +9.2 +7.1 87 +7 +9 1019.2 996.4
09 19.10 Ю 4-6
{6}
20 км 8/0
[Ac trans]
+16.9 +9.0 60 +16 +18 1017.7 995.5
12 19.10 ЮЗ 4-6
{6}
20 км 8/0
[Ci fib]
+19.4 +8.6 50 +20 +21 1015.9 994.0
15 19.10 ЮЗ 2-4
{4}
10 км 8/0
[Ci fib]
+16.4 +8.1 58 +17 +17 1015.6 993.4 +19.7
18 19.10 Ю 2-4
{4}
10 км 4/0
[Ci fib]
+13.5 +6.7 63 +13 +13 1014.4 992.1
21 19.10 ЮЗ 2-4
{4}
10 км 6/0
[Ci fib]
+12.1 +5.5 64 +11 +11 1014.4 991.9
00 20.10 Ю 2-2
{2}
10 км ясно +10.2 +4.6 68 +9 +9 1014.3 991.7
03 20.10 штиль 0 10 км 3/0
[Ci fib]
+8.9 +6.7 86 +8 +8 1015.1 992.4 +8.8
06 20.10 С 2-4
{4}
20 км 3/3 1000 м
[Cu hum]
+9.3 +6.5 83 +8 +8 1016.9 994.1 +7.1
09 20.10 С 2-4
{4}
20 км ясно +12.1 +3.6 56 +11 +15 1017.5 994.9
12 20.10 С 2-4
{4}
20 км 3/0
[Ci fib]
+11.8 +1.1 48 +11 +12 1018.0 995.5
15 20.10 С 2-2
{2}
10 км 3/0
[Ci fib]
+8.0 +1.1 62 +6 +6 1019.1 996.2 +12.4
18 20.10 С 2-2
{2}
10 км 3/0
[Ci fib]
+5.4 +0.8 72 +3 +3 1021.0 997.8
21 20.10 С 2-2
{2}
10 км ясно +5.0 +0.3 72 +3 +3 1021.8 998.6
00 21.10 С 2-2
{2}
10 км ясно +4.0 +0.3 77 +1 +1 1022.3 999.0

 

Местоположение метеостанции Краснослободск (Мордовия, Россия): широта 54.43 долгота 43.77 высота над уровнем моря 188 м.

В архиве по умолчанию представлена погода в Краснослободске за последнюю неделю. Архивные данные за месяц целиком и за предыдущие месяцы, начиная с января 2011 года, Вы можете получить, выбрав интересующий диапазон дат из раскрывающегося списка и нажав кнопку "Ввод!".


*Определитесь, кто Вы:
робот инопланетянин человек

Внимание! Время в таблицах - всемирное. Для получения местного времени необходимо прибавить поправку, которая в Краснослободске равна 3 ч.

Смотрите также архив погоды в соседних городах и на ближайших метеорологических станциях:

Погода в Темникове (Мордовия, Россия) (41 км)
Погода в Торбеево (Мордовия, Россия) (52 км)
Погода в Инсаре (Мордовия, Россия) (74 км)
Погода в Лукоянове (Нижегородская область, Россия) (82 км)
Погода в Саранске (Мордовия, Россия) (102 км)
Погода в Арзамасе (Нижегородская область, Россия) (105 км)
Погода в Сасово (Рязанская область, Россия) (116 км)
Погода в Большом Болдино (Нижегородская область, Россия) (119 км)
Погода в Пачелме (Пензенская область, Россия) (126 км)
Погода в Земетчино (Пензенская область, Россия) (129 км)

Пояснения к столбцам:

Ветер - указаны скорость ветра в м/с - средняя за 10 мин, порывы в срок и между сроками (в фигурных скобках) и направление, откуда дует ветер: С - северный, СВ - северо-восточный, В - восточный, ЮВ - юго-восточный, Ю - южный, ЮЗ - юго-западный, З - западный, СЗ - северо-западный.
Видимость - горизонтальная дальность видимости в метрах или километрах. При видимости от 1 до 10 км при отсутствии осадков обычно наблюдается дымка, при ухудшении видимости до 1 км и менее - туман. В сухую погоду видимость может ухудшаться дымом, пылью или мглою.
Явления - указаны атмосферные явления, наблюдавшиеся в срок или в последний час перед сроком; фигурными скобками обозначены явления, наблюдавшиеся между сроками (за 1-3 часа до срока); квадратными скобками обозначены град или гололедные отложения с указанием их диаметра в мм.
Облачность - указаны через наклонную черту общая и нижняя облачность в баллах и высота нижней границы облаков в метрах; квадратными скобками обозначены формы облаков: Ci - перистые, Cs - перисто-слоистые, Cc - перисто-кучевые, Ac - высококучевые, As - высокослоистые, Sc - слоисто-кучевые, Ns - слоисто-дождевые, Cu - кучевые, Cb - кучево-дождевые. Подробнее классификацию облаков см. в Атласе облаков (PDF).
T - Температура воздуха - температура, измеренная на высоте 2 м над землей.
Td - Температура точки росы - температура, при понижении до которой содержащийся в воздухе водяной пар достигнет насыщения.
f - Относительная влажность воздуха - влажноcть воздуха, измеренная на высоте 2 м над землей.
Te - Эффективная температура - температура, которую ощущает одетый по сезону человек в тени. Характеристика душности погоды. При расчете учитывается влияние влажности воздуха и скорости ветра на теплоощущения человека.
Tes - Эффективная температура на солнце - температура, которую ощущает человек, с поправкой на солнечный нагрев. Характеристика знойности погоды. Зависит от высоты солнца над горизонтом, облачности и скорости ветра. Ночью, в пасмурную погоду, а также при ветре 12 м/с и более поправка равна нулю.
P - Атмосферное давление - приведенное к уровню моря атмосферное давление.
Po - Атмосферное давление - измеренное на уровне метеостанции атмосферное давление.
Tmin - Минимальная температура - минимум температуры воздуха на высоте 2 м над землей.
Tmax - Максимальная температура - максимум температуры воздуха на высоте 2 м над землей.
R - Количество осадков - Количество выпавших осадков за период времени, мм. При наведении курсора мыши на число - период времени, за который выпало указанное количество осадков.
R24 - Количество осадков - Количество выпавших осадков за 24 часа, мм.
S - Снежный покров - Высота снежного покрова, см. При наведении курсора мыши на число - состояние снежного покрова и степень покрытия местности в баллах.